Weather Roundup
Issued by NWS Chicago, IL

Home | Current Version | Previous Version | Graphics & Text | Print | Product List | Glossary On
Versions: 1 2 3 4 5 6 7 8 9 10 11 12 13 14 15 16 17 18 19 20 21 22 23 24 25 26 27 28 29 30 31 32 33 34 35 36 37 38 39 40 41 42 43 44 45 46 47 48 49 50
000
NZUS59 KLOT 292258
HRRLOT

CHICAGO AREA WEATHER ROUNDUP
NATIONAL WEATHER SERVICE CHICAGO/ROMEOVILLE IL
500 PM CST THU JAN 29 2015

NOTE: "FAIR" INDICATES FEW OR NO CLOUDS BELOW 12,000 FEET WITH NO
SIGNIFICANT WEATHER AND/OR OBSTRUCTIONS TO VISIBILITY.

* THESE STATIONS ARE NOT UNDER NWS QUALITY CONTROL. THEY ALSO MAY NOT
  REPORT WEATHER SUCH AS PRECIPITATION OR FOG.

ILZ005-006-012>014-019>023-300000-
NORTHEAST ILLINOIS

CITY           SKY/WX    TMP DP  RH WIND       PRES   REMARKS
OHARE          CLOUDY    34  25  69 NW17      30.09R WCI  23
MIDWAY         NOT AVBL
AURORA         CLOUDY    35  24  64 NW20G29   30.12R WCI  24
WAUKEGAN       NOT AVBL
DUPAGE AIRPORT CLOUDY    35  24  64 N16G29    30.11R WCI  25
WHEELING       CLOUDY    34  25  69 NW13G22   30.11R WCI  25
NORTHERLY IS     N/A     35  26  70 NW13        N/A  WCI  26
$$

WIZ051-052-058>065-066-070>072-300000-
SOUTHEAST WISCONSIN

CITY           SKY/WX    TMP DP  RH WIND       PRES   REMARKS
MILWAUKEE      CLOUDY    35  22  58 NW18G26   30.08R WCI  24
KENOSHA*       CLOUDY    35  24  64 NW12G25   30.09R WCI  27
WAUKESHA       CLOUDY    32  21  64 NW17G29   30.08R WCI  21
$$

INZ001>003-010>013-019-020-300000-
NORTHWEST INDIANA

CITY           SKY/WX    TMP DP  RH WIND       PRES   REMARKS
GARY*          CLOUDY    37  23  56 NW14G29   30.10R
MICHIGAN CITY* NOT AVBL
RENSSELAER*    NOT AVBL
$$

LMZ740>746-300000-
SOUTHERN LAKE MICHIGAN

STATION/POSITION TIME  SKY/WX   TEMP WIND        PRES    VSBY
                                AIR  DIR/SP/G
                 (UTC)          (F)  (DEG/KT/KT) (MB)    (MI)
HARRISON CRIB    2200            34  320/ 16/ 19   N/A
BURNHAM HARBOR   2200            35  260/  7/ 15   N/A
CALUMET HARBOR   2200            35  300/  8/ 17   N/A
BURNS HARBOR     NOT AVBL
MICHIGAN CITY    2200            34  300/ 21/ 25   N/A
$$

ABBREVIATIONS USED IN REMARKS
   TC - TEMPERATURE IN CELSIUS
  WCI - WIND CHILL INDEX
   HX - HEAT INDEX
  VSB - VISIBILITY
$$



USA.gov is the U.S. government's official web portal to all federal, state and local government web resources and services.